星链-11378 (STARLINK-11378)

导读

STARLINK-11378是美国SpaceX公司星链(Starlink)星座的一颗卫星,于2024年11月18日发射入轨。星链项目旨在构建近地轨道卫星互联网星座,为全球偏远、欠发达地区提供高速宽带互联网接入服务。作为星链扩张组网的一员,STARLINK-11378将进一步完善星座覆盖密度,提升全球网络服务的稳定性与带宽,助力星链实现全球全域互联的目标,持续推进太空互联网基础设施建设。

Basic Information
目录编号:
62020
目录名称:
STARLINK-11378
国际标识:
2024-213N
轨道中心:
EARTH
卫星名称:
星链-11378
卫星全名:
星链-11378 (STARLINK-11378)
卫星状态:
在轨 (已飞行656 天)
发射日期:
2024-11-18 UTC
国别 :
美国 (US)
星等 :
--
Orbit Information
数据来源 国际轨道数据
星历时间: 2026-09-05T14:16:42+0800
12小时前
查看轨道信息
半长轴: 6737.826km
偏心率: 0.0001413
轨道倾角: 53.158°
近地点辐角 96.580°
升交点赤经 235.694°
平近点角 263.538°
近地点: 358.736km
远地点: 360.642km
周期: 91.736分钟
每日圈数: 15.697234
Detailed Information
固有亮度:
5
最大亮度:
2.5
卫星平台:
Starlink V1.0
覆盖范围:
全球
运营商:
太空探索技术公司
运营商所在国:
美国
制造商(研发单位):
太空探索技术公司
制造商所在国:
美国
使用方式:
暂无
Satellite Introduction
Starlink 计划是 SpaceX 推出的全球卫星互联网项目,通过发射低轨道卫星,为全球尤其是偏远地区提供高速、低延迟的互联网服务。自 2019 年起,Starlink 已部署数千颗卫星,旨在缩小全球数字鸿沟,推动互联网普及。该项目还为军事、航空等行业提供通信支持,带来广泛经济效益。
2D Orbit Map
3D Orbit Map
Orbit Altitude Analysis Chart
Orbit Inclination Analysis Chart
Orbit Comprehensive Analysis Chart
View Comprehensive Chart
Conjunction Data List
Event ID Objects TCA Miss Dist (km) Collision Risk Probability Collision Risk Index (CRI) Action
CDM_260830-061205-829606-202021
2026-08-30T
06:12:35+0000
1.697 km
极远距离
3.659217E-6 低风险 0.46